Regional Weather Roundup
Issued by NWS

Home | Current Version | Previous Version | Text Only | Print | Product List | Glossary Off
Versions: 1 2 3 4 5 6 7 8 9 10 11 12 13 14 15 16 17 18 19 20 21 22 23 24 25 26 27 28 29 30 31 32 33 34 35 36 37 38 39 40 41 42 43 44 45 46 47 48 49 50

000
ASUS43 KFSD 232302
RWRSD

WEATHER ROUNDUP FOR SOUTH DAKOTA
NATIONAL WEATHER SERVICE SIOUX FALLS SD
600 PM CDT THU MAR 23 2017

NOTE: "FAIR" INDICATES FEW OR NO CLOUDS BELOW 12,000 FEET WITH NO
SIGNIFICANT WEATHER AND/OR OBSTRUCTIONS TO VISIBILITY.


SDZ001>005-009-010-012>017-240000-
NORTHWEST AND NORTH CENTRAL SOUTH DAKOTA

CITY           SKY/WX    TMP DP  RH WIND       PRES   REMARKS
BUFFALO          N/A     44  41  89 NE8       29.74R
FAITH            N/A     47  41  80 N15       29.73R
MOBRIDGE       MOSUNNY   50  37  61 N18       29.69R
$$

SDZ012>016-024>037-041>051-057-063-072>074-240000-
SOUTHWEST AND SOUTH CENTRAL SOUTH DAKOTA

CITY           SKY/WX    TMP DP  RH WIND       PRES   REMARKS
RAPID CTY ARPT LGT RAIN  47  42  83 NW25G33   29.73R
PIERRE         PTSUNNY   60  42  51 NE6       29.62R
CUSTER         CLOUDY    45  39  79 NE9       29.71R
ELLSWORTH AFB  CLOUDY    47  43  84 N23       29.74
PHILIP         SUNNY     61  39  44 N15       29.64R
PINE RIDGE     CLOUDY    60  41  49 N17G25    29.65R
SPEARFISH      LGT RAIN  41  41 100 NW8       29.82R
WINNER         FAIR      61  48  62 S9        29.61R
$$

SDZ004>011-016>023-039-040-240000-
NORTHEAST SOUTH DAKOTA

CITY           SKY/WX    TMP DP  RH WIND       PRES   REMARKS
ABERDEEN       CLOUDY    44  35  70 NE5       29.72R
WATERTOWN      CLOUDY    39  38  96 SE7       29.70F FOG
BROOKINGS      CLOUDY    41  39  93 SE10      29.69S
SISSETON         N/A     37  37 100 S10       29.75S
$$

SDZ017-020-022-023-036>040-048>070-240000-
SOUTHEAST SOUTH DAKOTA

CITY           SKY/WX    TMP DP  RH WIND       PRES   REMARKS
SIOUX FALLS    CLOUDY    49  42  77 E7        29.68S
HURON          CLOUDY    45  43  93 E9        29.67R
CHAMBERLAIN    CLOUDY    54  51  90 E8        29.65R
MITCHELL       CLOUDY    49  46  90 SE7       29.66R FOG
YANKTON        CLOUDY    57  50  77 S6        29.64R
$$

ABBREVIATIONS USED IN REMARKS
   TC - TEMPERATURE IN CELSIUS
  WCI - WIND CHILL INDEX
   HX - HEAT INDEX
  VSB - VISIBILITY





USA.gov is the U.S. government's official web portal to all federal, state and local government web resources and services.